timestamp,wind_dir_avg,wind_spd_avg,wind_spd_max_dir,wind_spd_gust,battery_voltage,lat,long
2022-12-20 00:04:01+00:00,77.0,7.09,63.0,10.97,12.09,47.59359,-54.27349
2022-12-20 00:14:01+00:00,79.0,5.81,83.0,8.86,12.09,47.59359,-54.27349
2022-12-20 00:24:01+00:00,75.0,5.95,60.0,7.73,12.09,47.59359,-54.27349
2022-12-20 00:34:01+00:00,81.0,5.85,83.0,9.51,12.09,47.59359,-54.27349
2022-12-20 00:44:01+00:00,70.0,7.43,67.0,10.19,12.09,47.59359,-54.27349
2022-12-20 00:54:01+00:00,71.0,9.91,69.0,11.82,12.09,47.59359,-54.27349
2022-12-20 01:04:01+00:00,71.0,8.71,64.0,12.14,12.09,47.59359,-54.27349
2022-12-20 01:14:00+00:00,72.0,8.29,61.0,11.37,12.09,47.59359,-54.27349
2022-12-20 01:24:00+00:00,75.0,7.04,69.0,9.47,12.09,47.59359,-54.27349
2022-12-20 01:34:00+00:00,80.0,7.09,59.0,9.73,12.09,47.59359,-54.27349
2022-12-20 01:44:00+00:00,71.0,6.6,58.0,10.57,12.09,47.59359,-54.27349
2022-12-20 01:54:00+00:00,73.0,6.62,71.0,8.43,12.09,47.59359,-54.27349
2022-12-20 02:04:00+00:00,76.0,6.45,84.0,8.6,12.09,47.59359,-54.27349
2022-12-20 02:14:00+00:00,73.0,6.23,69.0,9.39,12.09,47.59359,-54.27349
2022-12-20 02:24:00+00:00,78.0,5.51,63.0,6.98,12.09,47.59359,-54.27349
2022-12-20 02:34:00+00:00,76.0,6.7,66.0,9.75,12.09,47.59359,-54.27349
2022-12-20 02:44:00+00:00,76.0,6.98,74.0,9.58,12.09,47.59359,-54.27349
2022-12-20 02:54:00+00:00,69.0,8.63,61.0,10.07,12.09,47.59359,-54.27349
2022-12-20 03:04:00+00:00,72.0,8.37,68.0,9.91,12.09,47.59359,-54.27349
2022-12-20 03:14:00+00:00,71.0,6.73,68.0,8.49,12.09,47.59359,-54.27349
2022-12-20 03:24:00+00:00,65.0,6.74,69.0,8.6,12.09,47.59359,-54.27349
2022-12-20 03:34:00+00:00,64.0,7.2,66.0,8.34,12.09,47.59359,-54.27349
2022-12-20 03:44:00+00:00,60.0,7.22,54.0,7.71,12.09,47.59359,-54.27349
2022-12-20 03:54:00+00:00,63.0,7.67,72.0,9.15,12.09,47.59359,-54.27349
2022-12-20 04:04:00+00:00,57.0,7.26,53.0,7.81,12.09,47.59359,-54.27349
2022-12-20 04:14:00+00:00,56.0,7.26,51.0,8.42,12.01,47.59359,-54.27349
2022-12-20 04:24:00+00:00,64.0,6.79,60.0,7.62,12.01,47.59359,-54.27349
2022-12-20 04:34:00+00:00,62.0,8.34,63.0,9.87,12.01,47.59359,-54.27349
2022-12-20 04:44:00+00:00,63.0,8.94,63.0,10.16,12.01,47.59359,-54.27349
2022-12-20 04:54:00+00:00,69.0,9.66,70.0,10.74,12.01,47.59359,-54.27349
2022-12-20 05:04:00+00:00,62.0,10.05,62.0,10.77,12.01,47.59359,-54.27349
2022-12-20 05:14:00+00:00,64.0,9.56,60.0,10.13,12.09,47.59359,-54.27349
2022-12-20 05:24:00+00:00,63.0,9.81,60.0,10.6,12.09,47.59359,-54.27349
2022-12-20 05:34:00+00:00,65.0,9.1,69.0,9.99,12.09,47.59359,-54.27349
2022-12-20 05:44:00+00:00,63.0,9.73,69.0,10.95,12.09,47.59359,-54.27349
2022-12-20 05:54:00+00:00,65.0,9.21,67.0,9.68,12.09,47.59359,-54.27349
2022-12-20 06:04:00+00:00,59.0,10.28,63.0,11.09,12.09,47.59359,-54.27349
2022-12-20 06:14:00+00:00,65.0,8.76,68.0,11.86,12.09,47.59359,-54.27349
2022-12-20 06:24:00+00:00,68.0,10.78,68.0,12.2,12.09,47.59359,-54.27349
2022-12-20 06:34:00+00:00,63.0,9.58,58.0,10.28,12.09,47.59359,-54.27349
2022-12-20 06:44:00+00:00,70.0,12.55,74.0,14.81,12.09,47.59359,-54.27349
2022-12-20 06:54:00+00:00,68.0,10.44,69.0,11.8,12.09,47.59359,-54.27349
2022-12-20 07:04:00+00:00,68.0,10.55,68.0,12.62,12.09,47.59359,-54.27349
2022-12-20 07:14:00+00:00,67.0,10.45,68.0,11.76,12.09,47.59359,-54.27349
2022-12-20 07:24:00+00:00,61.0,8.08,58.0,9.82,12.09,47.59359,-54.27349
2022-12-20 07:34:00+00:00,64.0,9.62,56.0,10.7,12.09,47.59359,-54.27349
2022-12-20 07:44:00+00:00,63.0,9.07,60.0,10.09,12.09,47.59359,-54.27349
2022-12-20 07:54:00+00:00,62.0,9.87,63.0,11.12,12.09,47.59359,-54.27349
2022-12-20 08:04:00+00:00,66.0,9.48,61.0,11.2,12.09,47.59359,-54.27349
2022-12-20 08:14:01+00:00,62.0,9.88,60.0,11.89,12.09,47.59359,-54.27349
2022-12-20 08:24:01+00:00,63.0,9.44,57.0,10.36,12.09,47.59359,-54.27349
2022-12-20 08:34:01+00:00,64.0,10.02,66.0,11.65,12.09,47.59359,-54.27349
2022-12-20 08:44:01+00:00,66.0,9.57,62.0,12.76,12.09,47.59359,-54.27349
2022-12-20 08:54:01+00:00,68.0,9.96,71.0,12.19,12.09,47.59359,-54.27349
2022-12-20 09:04:01+00:00,67.0,11.44,69.0,14.94,12.09,47.59359,-54.27349
2022-12-20 09:14:00+00:00,66.0,11.71,73.0,17.28,12.09,47.59359,-54.27349
2022-12-20 09:24:00+00:00,65.0,11.0,66.0,13.02,12.09,47.59359,-54.27349
2022-12-20 09:34:00+00:00,68.0,10.49,65.0,12.54,12.09,47.59359,-54.27349
2022-12-20 09:44:00+00:00,69.0,10.39,63.0,12.69,12.09,47.59359,-54.27349
2022-12-20 09:54:00+00:00,71.0,10.98,62.0,12.79,12.09,47.59359,-54.27349
2022-12-20 10:04:00+00:00,69.0,9.87,74.0,11.28,12.09,47.59359,-54.27349
2022-12-20 10:14:01+00:00,67.0,11.76,64.0,14.13,12.09,47.59359,-54.27349
2022-12-20 10:24:01+00:00,66.0,10.89,59.0,13.22,12.09,47.59359,-54.27349
2022-12-20 10:34:01+00:00,66.0,11.08,64.0,12.77,12.09,47.59359,-54.27349
2022-12-20 10:44:01+00:00,68.0,10.82,61.0,13.05,12.09,47.59359,-54.27349
2022-12-20 10:54:01+00:00,73.0,11.12,71.0,12.66,12.09,47.59359,-54.27349
2022-12-20 11:04:01+00:00,72.0,12.26,74.0,16.91,12.09,47.59359,-54.27349
2022-12-20 12:14:01+00:00,65.0,12.46,70.0,14.09,12.01,47.59359,-54.27349
2022-12-20 12:24:01+00:00,69.0,13.77,70.0,17.92,12.01,47.59359,-54.27349
2022-12-20 12:34:01+00:00,66.0,12.26,71.0,17.12,12.01,47.59359,-54.27349
2022-12-20 12:44:01+00:00,67.0,14.24,69.0,18.57,12.01,47.59359,-54.27349
2022-12-20 12:54:01+00:00,63.0,12.34,73.0,16.48,12.01,47.59359,-54.27349
2022-12-20 13:04:01+00:00,56.0,13.57,60.0,17.76,12.01,47.59359,-54.27349
2022-12-20 13:14:00+00:00,55.0,11.81,73.0,17.15,12.09,47.59359,-54.27349
2022-12-20 13:24:00+00:00,59.0,9.1,57.0,13.31,12.09,47.59359,-54.27349
2022-12-20 13:34:00+00:00,57.0,13.29,68.0,17.92,12.09,47.59359,-54.27349
2022-12-20 13:44:00+00:00,61.0,12.89,71.0,18.57,12.09,47.59359,-54.27349
2022-12-20 13:54:00+00:00,65.0,14.72,66.0,18.91,12.09,47.59359,-54.27349
2022-12-20 14:04:00+00:00,59.0,14.21,61.0,18.91,12.09,47.59359,-54.27349
2022-12-20 14:14:00+00:00,61.0,11.52,58.0,13.34,12.33,47.59359,-54.27349
2022-12-20 14:24:00+00:00,51.0,11.4,65.0,14.89,12.33,47.59359,-54.27349
2022-12-20 14:34:00+00:00,57.0,11.02,58.0,14.12,12.33,47.59359,-54.27349
2022-12-20 14:44:00+00:00,49.0,10.94,54.0,13.63,12.33,47.59359,-54.27349
2022-12-20 14:54:00+00:00,54.0,11.03,60.0,14.05,12.33,47.59359,-54.27349
2022-12-20 15:04:00+00:00,54.0,12.61,68.0,15.45,12.33,47.59359,-54.27349
2022-12-20 15:14:00+00:00,55.0,13.76,63.0,17.82,12.57,47.59359,-54.27349
2022-12-20 15:24:00+00:00,46.0,12.84,50.0,15.24,12.57,47.59359,-54.27349
2022-12-20 15:34:00+00:00,47.0,13.06,49.0,15.37,12.57,47.59359,-54.27349
2022-12-20 15:44:00+00:00,46.0,11.74,48.0,14.24,12.57,47.59359,-54.27349
2022-12-20 15:54:00+00:00,49.0,12.46,47.0,15.16,12.57,47.59359,-54.27349
2022-12-20 16:04:00+00:00,45.0,10.84,48.0,12.4,12.57,47.59359,-54.27349
2022-12-20 16:14:01+00:00,50.0,14.18,55.0,19.16,12.89,47.59359,-54.27349
2022-12-20 16:24:01+00:00,46.0,12.5,46.0,14.78,12.89,47.59359,-54.27349
2022-12-20 16:34:01+00:00,47.0,12.35,45.0,14.87,12.89,47.59359,-54.27349
2022-12-20 16:44:01+00:00,44.0,13.47,42.0,15.95,12.89,47.59359,-54.27349
2022-12-20 16:54:01+00:00,46.0,12.45,47.0,14.24,12.89,47.59359,-54.27349
2022-12-20 17:04:01+00:00,46.0,14.74,52.0,18.37,12.89,47.59359,-54.27349
2022-12-20 17:14:01+00:00,45.0,12.1,46.0,13.65,12.73,47.59359,-54.27349
2022-12-20 17:24:01+00:00,44.0,14.41,48.0,16.86,12.73,47.59359,-54.27349
2022-12-20 17:34:01+00:00,45.0,13.07,54.0,16.54,12.73,47.59359,-54.27349
2022-12-20 17:44:01+00:00,46.0,12.81,45.0,14.32,12.73,47.59359,-54.27349
2022-12-20 17:54:01+00:00,46.0,12.63,44.0,14.84,12.73,47.59359,-54.27349
2022-12-20 18:04:01+00:00,52.0,13.44,54.0,17.71,12.73,47.59359,-54.27349
2022-12-20 18:14:01+00:00,44.0,12.49,48.0,15.82,13.21,47.59359,-54.27349
2022-12-20 18:24:01+00:00,43.0,13.13,47.0,14.88,13.21,47.59359,-54.27349
2022-12-20 18:34:01+00:00,41.0,12.71,34.0,14.98,13.21,47.59359,-54.27349
2022-12-20 18:44:01+00:00,38.0,14.1,38.0,16.53,13.21,47.59359,-54.27349
2022-12-20 18:54:01+00:00,44.0,13.95,50.0,16.23,13.21,47.59359,-54.27349
2022-12-20 19:04:01+00:00,43.0,11.61,43.0,13.33,13.21,47.59359,-54.27349
2022-12-20 19:14:00+00:00,47.0,11.95,54.0,13.34,13.05,47.59359,-54.27349
2022-12-20 19:24:00+00:00,41.0,12.57,38.0,13.97,13.05,47.59359,-54.27349
2022-12-20 19:34:00+00:00,41.0,12.74,35.0,14.57,13.05,47.59359,-54.27349
2022-12-20 19:44:00+00:00,39.0,14.26,47.0,17.77,13.05,47.59359,-54.27349
2022-12-20 19:54:00+00:00,44.0,14.56,44.0,21.2,13.05,47.59359,-54.27349
2022-12-20 20:04:00+00:00,40.0,13.99,47.0,16.23,13.05,47.59359,-54.27349
2022-12-20 20:14:00+00:00,38.0,14.2,40.0,16.22,12.49,47.59359,-54.27349
2022-12-20 20:24:00+00:00,39.0,13.4,36.0,14.83,12.49,47.59359,-54.27349
2022-12-20 20:34:00+00:00,40.0,13.11,34.0,14.42,12.49,47.59359,-54.27349
2022-12-20 20:44:00+00:00,41.0,12.64,47.0,14.49,12.49,47.59359,-54.27349
2022-12-20 20:54:00+00:00,35.0,14.02,36.0,15.48,12.49,47.59359,-54.27349
2022-12-20 21:04:00+00:00,38.0,13.73,44.0,15.94,12.49,47.59359,-54.27349
2022-12-20 21:14:00+00:00,43.0,13.99,51.0,15.71,12.41,47.59359,-54.27349
2022-12-20 21:24:00+00:00,39.0,13.94,41.0,15.67,12.41,47.59359,-54.27349
2022-12-20 21:34:00+00:00,35.0,14.48,34.0,17.34,12.41,47.59359,-54.27349
2022-12-20 21:44:00+00:00,42.0,15.15,54.0,19.77,12.41,47.59359,-54.27349
2022-12-20 21:54:00+00:00,41.0,14.22,55.0,18.18,12.41,47.59359,-54.27349
2022-12-20 22:04:00+00:00,34.0,14.93,28.0,17.52,12.41,47.59359,-54.27349
2022-12-20 22:14:00+00:00,36.0,14.28,31.0,16.48,12.33,47.59359,-54.27349
2022-12-20 22:24:00+00:00,40.0,15.22,46.0,18.33,12.33,47.59359,-54.27349
2022-12-20 22:34:00+00:00,36.0,14.05,30.0,16.03,12.33,47.59359,-54.27349
2022-12-20 22:44:00+00:00,37.0,13.43,29.0,15.37,12.33,47.59359,-54.27349
2022-12-20 22:54:00+00:00,41.0,14.22,40.0,16.98,12.33,47.59359,-54.27349
2022-12-20 23:04:00+00:00,38.0,14.51,38.0,16.03,12.33,47.59359,-54.27349
2022-12-20 23:14:00+00:00,37.0,13.36,34.0,15.16,12.33,47.59359,-54.27349
2022-12-20 23:24:00+00:00,46.0,15.01,51.0,19.7,12.33,47.59359,-54.27349
2022-12-20 23:34:00+00:00,36.0,14.88,46.0,17.27,12.33,47.59359,-54.27349
2022-12-20 23:44:00+00:00,39.0,14.04,56.0,17.71,12.33,47.59359,-54.27349
2022-12-20 23:54:00+00:00,41.0,12.52,44.0,14.16,12.33,47.59359,-54.27349
